Temp
93 96 94 97 98 100 98 96 95 93 93 96 96 96 97 97 98 99 100 85 82 81 81 82 83 83 83 83 83 83 82 82 81 81 81 81 80 80 80 80 80 80 79
93 97 96 97 98 98 97 95 91 93 92 94 95 95 94 97 96 95 100 98 82 82 82 82 83 83 83 83 83 82 83 82 82 81 81 80 80 80 80 80 80 79 79
93 90 96 98 97 95 94 96 94 93 95 95 93 95 96 95 96 94 97 98 94 80 81 81 81 82 83 83 83 82 82 81 81 80 80 80 80 79 79 79 79 79 79
92 92 98 98 95 97 96 97 94 90 89 88 89 91 93 94 93 93 95 95 96 99 82 80 80 80 81 81 81 81 81 80 80 80 80 80 80 79 79 79 79 79 78
94 93 97 98 94 97 97 95 90 83 82 84 89 91 90 92 93 97 93 93 93 95 95 79 80 79 80 80 80 80 80 79 79 79 80 80 80 80 79 79 79 79 78
93 93 98 95 94 96 97 94 86 85 85 84 88 87 88 90 92 92 93 95 91 90 92 89 91 89 79 78 78 78 79 79 79 79 79 78 78 79 79 79 78 78 78
93 91 96 95 94 92 92 89 87 84 88 83 84 85 85 88 89 91 91 91 89 90 89 87 88 89 91 79 77 77 77 78 78 78 78 77 77 77 77 78 78 78 78
93 92 91 93 93 94 88 86 86 87 87 81 81 82 77 82 87 89 89 86 85 85 86 88 85 84 85 87 83 77 78 76 77 77 77 76 76 75 75 76 76 77 77
92 92 91 91 91 91 89 85 85 83 88 84 78 82 79 78 82 88 86 87 83 85 87 87 86 85 84 85 84 83 76 74 75 76 76 76 75 75 75 75 75 75 76
92 92 90 90 90 94 86 86 87 86 82 83 82 82 78 78 78 78 87 84 83 82 84 86 87 86 85 85 82 80 75 73 74 75 75 75 75 74 74 74 75 75 76
91 93 91 90 89 92 88 85 84 82 86 75 82 85 80 82 81 77 76 82 82 85 86 87 88 87 86 84 85 82 75 74 74 73 74 74 74 74 74 74 74 75 75
95 90 92 90 90 91 86 85 83 80 79 72 75 84 83 82 81 79 76 80 80 78 88 88 87 86 86 86 84 77 76 74 73 72 72 72 72 73 73 74 74 75 75
96 93 90 89 91 89 89 85 82 81 77 70 71 80 85 84 84 81 74 79 75 81 85 89 88 88 87 85 85 77 76 74 72 71 70 70 70 71 71 72 73 73 74
96 94 92 91 90 90 89 83 83 84 82 71 72 79 83 82 80 75 72 74 69 82 85 82 86 87 87 85 81 75 80 74 72 70 69 69 68 69 69 70 70 71 71
95 93 92 91 91 90 88 83 82 81 79 72 72 76 78 81 78 76 77 71 77 75 78 83 83 86 85 84 80 79 78 74 71 70 69 68 68 68 67 67 67 67 67
90 91 91 89 90 90 88 81 82 82 77 72 77 78 77 82 77 78 78 80 82 79 75 83 84 82 80 79 80 78 77 72 73 71 69 68 67 67 66 66 65 65 66
89 88 88 88 88 88 87 80 79 79 76 75 77 78 79 79 77 78 80 83 82 80 75 80 81 81 75 75 76 77 77 76 80 72 70 68 66 65 65 64 64 64 64
89 88 88 87 88 88 85 80 74 75 77 79 79 76 78 79 77 80 83 79 79 78 76 70 76 77 76 75 75 73 77 80 79 72 65 63 62 63 62 62 61 61 61
89 89 88 86 87 86 82 80 68 75 79 80 81 80 78 78 78 83 79 80 81 79 78 75 73 79 77 78 75 76 75 75 77 67 62 61 61 62 62 61 60 59 58
88 88 88 87 85 84 82 81 77 81 78 80 78 80 80 80 81 80 80 77 77 74 76 75 75 75 76 75 75 74 73 73 70 61 60 60 61 63 62 61 61 60 58
89 88 88 88 85 83 82 80 80 81 80 72 79 82 82 73 66 68 79 74 72 73 74 74 73 74 72 70 70 71 68 69 66 60 57 59 62 61 61 60 60 61 59
88 86 86 87 84 86 70 68 77 78 74 77 79 78 76 70 68 64 65 64 66 67 67 69 71 68 66 69 70 67 67 62 55 62 56 57 57 55 58 59 59 59 58
86 83 83 86 84 84 64 65 68 80 81 80 78 79 82 79 75 76 64 64 63 62 61 65 66 67 65 66 64 63 62 63 57 57 56 52 55 54 57 56 58 58 59
82 80 82 82 79 73 62 63 67 82 80 80 80 79 76 75 71 74 74 73 73 73 71 72 69 69 68 66 64 64 66 64 63 59 55 50 54 53 54 53 57 56 56
78 78 77 76 75 70 60 62 73 82 80 78 78 76 75 72 59 62 72 70 70 71 67 63 61 60 60 60 62 69 66 59 54 55 54 52 52 51 54 51 52 55 54
77 75 74 78 68 70 58 59 74 83 77 77 73 71 61 67 57 57 70 69 68 68 70 72 73 71 69 68 64 66 63 56 53 52 55 52 50 51 50 52 50 51 52
MSLP
1017.76 1017.64 1017.75 1017.31 1017.24 1017.16 1017.02 1017.07 1017.27 1017.40 1017.24 1016.79 1016.72 1016.57 1016.27 1015.84 1015.66 1015.28 1015.08 1015.88 1016.30 1016.35 1016.40 1016.38 1016.32 1016.30 1016.42 1016.38 1016.33 1016.30 1016.28 1016.35 1016.42 1016.47 1016.66 1016.63 1016.71 1016.75 1017.06 1017.17 1017.22 1017.33 1017.47
1017.84 1017.64 1017.47 1017.31 1017.21 1017.30 1017.32 1017.43 1017.63 1017.33 1017.15 1016.80 1016.44 1016.34 1016.27 1015.83 1015.60 1015.60 1014.98 1015.06 1015.99 1016.26 1016.25 1016.18 1016.10 1015.96 1015.87 1016.01 1016.08 1016.12 1015.98 1015.96 1016.01 1016.00 1016.13 1016.24 1016.27 1016.37 1016.44 1016.64 1016.72 1016.84 1016.98
1017.86 1018.14 1017.49 1017.35 1017.38 1017.59 1017.62 1017.31 1017.23 1017.05 1016.60 1016.28 1016.30 1015.89 1015.83 1015.80 1015.55 1015.56 1015.09 1014.89 1015.01 1015.89 1016.35 1016.34 1016.22 1016.11 1015.91 1015.73 1015.71 1015.72 1015.70 1015.67 1015.64 1015.68 1015.69 1015.70 1015.70 1015.73 1015.80 1016.06 1016.22 1016.35 1016.60
1017.94 1017.95 1017.36 1017.27 1017.64 1017.43 1017.36 1016.96 1017.06 1017.06 1017.11 1017.11 1016.68 1016.37 1016.11 1015.79 1015.75 1015.71 1015.41 1015.32 1015.06 1014.73 1015.90 1016.30 1016.29 1016.15 1016.15 1016.02 1015.84 1015.75 1015.62 1015.54 1015.48 1015.48 1015.46 1015.30 1015.31 1015.33 1015.39 1015.52 1015.71 1015.76 1015.92
1017.68 1017.90 1017.32 1017.26 1017.75 1017.28 1017.08 1016.86 1017.26 1018.03 1017.74 1017.18 1016.46 1016.11 1016.20 1015.85 1015.54 1015.03 1015.40 1015.36 1015.46 1015.14 1014.95 1016.08 1016.06 1016.10 1016.15 1016.13 1016.03 1015.93 1015.82 1015.60 1015.42 1015.18 1015.09 1015.02 1014.83 1014.80 1014.87 1014.91 1015.08 1015.23 1015.30
1017.68 1017.75 1017.17 1017.48 1017.59 1017.04 1016.82 1017.07 1017.86 1017.95 1017.18 1016.30 1016.00 1015.95 1015.60 1015.64 1015.55 1015.43 1015.37 1015.13 1015.58 1015.63 1015.41 1015.58 1015.30 1015.28 1015.84 1015.98 1015.91 1015.90 1015.84 1015.74 1015.53 1015.45 1015.18 1014.96 1014.71 1014.39 1014.41 1014.36 1014.42 1014.58 1014.72
1017.43 1017.62 1017.10 1017.16 1017.24 1017.16 1017.11 1017.72 1017.89 1017.60 1016.35 1017.39 1016.38 1015.57 1015.80 1015.55 1015.84 1015.49 1015.52 1015.36 1015.62 1015.50 1015.62 1015.85 1015.50 1015.33 1015.06 1015.54 1015.67 1015.81 1015.76 1015.68 1015.47 1015.25 1015.11 1014.93 1014.76 1014.42 1014.21 1014.05 1013.94 1014.06 1014.14
1017.09 1017.32 1017.38 1017.01 1016.80 1016.71 1017.53 1017.79 1017.81 1017.17 1016.68 1017.30 1016.85 1016.36 1015.96 1015.53 1015.38 1015.42 1015.38 1015.85 1016.13 1016.19 1015.94 1015.64 1015.88 1015.95 1015.67 1015.24 1015.15 1015.60 1015.57 1015.66 1015.46 1015.24 1014.89 1014.78 1014.72 1014.54 1014.23 1014.02 1013.82 1013.68 1013.75
1016.85 1017.01 1017.04 1016.86 1016.68 1016.94 1016.48 1017.50 1017.40 1017.26 1016.52 1017.20 1017.92 1017.10 1016.24 1015.77 1015.58 1015.36 1015.69 1015.91 1016.26 1016.01 1015.55 1015.39 1015.52 1015.54 1015.52 1015.19 1015.07 1015.00 1015.33 1015.62 1015.47 1015.15 1014.97 1014.59 1014.50 1014.36 1014.21 1013.95 1013.78 1013.66 1013.48
1016.39 1016.54 1016.56 1016.29 1016.22 1015.98 1016.58 1017.09 1017.27 1017.02 1017.43 1017.91 1018.19 1018.06 1017.93 1017.28 1016.09 1015.13 1015.16 1015.45 1015.89 1015.62 1015.30 1015.36 1014.99 1015.10 1015.22 1015.00 1015.02 1014.86 1015.32 1015.21 1015.06 1014.74 1014.69 1014.41 1014.18 1014.09 1013.98 1013.84 1013.65 1013.49 1013.36
1015.96 1015.93 1015.76 1015.71 1015.77 1016.02 1016.10 1016.94 1017.09 1017.44 1017.63 1018.17 1018.57 1017.79 1017.80 1017.30 1016.91 1016.34 1014.91 1014.64 1014.80 1014.59 1014.84 1014.76 1014.52 1014.69 1014.66 1014.87 1014.50 1014.49 1014.92 1015.00 1014.74 1014.49 1014.37 1014.15 1013.88 1013.63 1013.52 1013.38 1013.28 1013.22 1013.18
1014.99 1015.33 1015.04 1015.02 1015.16 1015.50 1016.05 1016.79 1017.30 1017.84 1018.19 1018.79 1018.37 1018.00 1017.44 1016.81 1016.37 1015.95 1015.77 1014.84 1014.40 1014.69 1014.27 1014.27 1014.46 1014.44 1014.46 1014.43 1014.47 1014.62 1014.64 1014.47 1014.20 1014.04 1014.03 1013.82 1013.45 1013.17 1012.94 1012.80 1012.71 1012.68 1012.64
1014.00 1014.20 1014.62 1014.75 1014.92 1015.30 1015.34 1016.13 1016.90 1017.43 1018.36 1019.30 1018.46 1017.81 1017.11 1016.56 1016.17 1016.04 1016.18 1015.29 1015.31 1014.47 1013.49 1013.65 1013.65 1013.74 1014.15 1014.33 1014.08 1014.44 1014.14 1013.68 1013.49 1013.50 1013.42 1013.22 1012.96 1012.63 1012.33 1012.16 1012.11 1012.08 1012.00
1013.36 1013.57 1013.97 1014.36 1014.53 1014.58 1015.01 1015.96 1016.40 1016.98 1017.42 1017.60 1017.41 1017.47 1016.88 1016.23 1016.26 1016.56 1016.48 1016.04 1015.49 1013.43 1012.87 1012.99 1013.42 1013.48 1013.56 1013.83 1014.20 1014.18 1013.18 1013.09 1013.00 1012.92 1012.76 1012.51 1012.26 1011.94 1011.73 1011.54 1011.40 1011.27 1011.28
1013.07 1013.38 1013.74 1013.88 1014.14 1014.24 1014.49 1015.36 1015.89 1015.51 1016.09 1016.58 1016.28 1016.54 1016.47 1015.94 1016.20 1016.25 1016.22 1016.71 1015.30 1013.91 1012.88 1012.93 1013.19 1013.39 1013.70 1013.92 1013.95 1013.70 1013.19 1012.66 1012.63 1012.16 1011.76 1011.59 1011.38 1011.18 1010.98 1010.85 1010.74 1010.60 1010.58
1012.80 1012.94 1013.08 1013.42 1013.52 1013.69 1014.15 1015.07 1015.17 1015.57 1015.78 1015.90 1016.00 1015.44 1015.92 1015.50 1015.94 1015.88 1016.18 1015.63 1015.00 1014.66 1013.74 1013.35 1013.35 1013.88 1014.16 1014.38 1013.72 1013.47 1012.90 1012.50 1011.58 1011.17 1010.88 1010.79 1010.59 1010.31 1010.00 1009.78 1009.70 1009.66 1009.58
1012.14 1012.31 1012.60 1012.77 1012.90 1013.18 1013.66 1014.79 1015.09 1015.32 1015.58 1015.48 1015.26 1015.34 1015.19 1015.36 1015.63 1015.61 1015.57 1015.03 1015.02 1015.02 1014.60 1013.68 1014.28 1014.15 1014.48 1014.14 1013.65 1013.23 1012.70 1011.92 1010.83 1010.34 1010.24 1010.04 1009.80 1009.35 1009.01 1008.84 1008.65 1008.51 1008.45
1011.54 1011.79 1012.08 1012.18 1012.35 1012.56 1013.16 1014.22 1013.98 1014.88 1015.60 1015.09 1014.60 1015.06 1015.03 1015.26 1015.52 1015.35 1015.14 1015.26 1015.32 1015.46 1015.26 1014.68 1014.40 1014.26 1013.94 1013.85 1013.39 1012.97 1012.01 1011.09 1010.36 1010.00 1010.26 1010.04 1009.46 1008.91 1008.52 1008.06 1007.74 1007.56 1007.45
1010.69 1010.90 1011.30 1011.60 1011.88 1012.12 1013.01 1013.84 1013.78 1014.50 1014.97 1014.50 1014.37 1014.58 1014.93 1015.10 1015.26 1014.80 1015.38 1015.28 1015.07 1015.26 1015.16 1015.07 1014.80 1014.04 1013.91 1013.39 1013.00 1012.21 1011.45 1010.54 1010.02 1010.33 1010.53 1009.94 1009.27 1008.42 1007.64 1007.14 1006.76 1006.47 1006.27
1009.96 1010.24 1010.59 1010.99 1011.26 1011.63 1012.42 1013.11 1013.89 1014.02 1014.40 1014.10 1014.50 1014.58 1014.74 1014.98 1014.94 1015.35 1015.35 1015.48 1015.46 1015.98 1015.41 1015.17 1014.60 1014.07 1013.70 1013.42 1012.97 1011.83 1010.96 1010.77 1010.14 1010.59 1010.40 1009.88 1008.86 1007.81 1007.17 1006.58 1006.14 1005.57 1004.91
1009.27 1009.72 1009.97 1010.26 1010.71 1011.16 1011.90 1012.79 1013.29 1013.64 1013.98 1014.48 1014.34 1014.45 1014.67 1015.52 1015.90 1016.19 1015.77 1016.30 1016.60 1016.50 1016.13 1015.57 1014.95 1014.44 1014.16 1013.96 1013.06 1012.51 1011.90 1011.07 1010.53 1010.38 1010.30 1009.56 1008.47 1007.66 1006.87 1006.29 1005.50 1004.65 1004.21
1008.61 1009.04 1009.30 1009.54 1010.12 1010.64 1011.30 1012.66 1013.14 1013.61 1014.10 1013.98 1014.14 1015.05 1015.76 1016.28 1016.44 1016.76 1017.15 1017.44 1017.69 1017.59 1017.20 1016.63 1015.56 1015.37 1014.98 1014.41 1013.71 1013.23 1012.30 1011.72 1010.70 1010.40 1010.36 1009.40 1008.65 1007.78 1006.97 1006.02 1004.95 1003.52 1003.24
1008.27 1008.88 1009.23 1009.46 1010.14 1010.73 1011.67 1012.62 1013.10 1013.29 1013.44 1013.99 1014.69 1015.05 1015.02 1016.28 1016.61 1016.99 1017.55 1017.70 1017.88 1017.85 1017.66 1017.32 1016.23 1015.90 1015.54 1015.20 1014.68 1013.77 1013.10 1012.09 1011.66 1010.95 1010.61 1009.40 1008.76 1008.13 1007.44 1006.22 1004.64 1002.78 1002.71
1008.21 1008.92 1009.34 1009.89 1010.64 1011.67 1012.19 1012.81 1013.10 1013.33 1013.90 1014.34 1014.74 1015.30 1016.18 1016.90 1017.44 1017.56 1017.62 1017.49 1017.26 1017.15 1017.32 1016.90 1016.82 1016.28 1016.16 1015.87 1015.32 1014.39 1013.11 1012.65 1011.93 1011.37 1011.28 1010.02 1009.12 1008.41 1008.08 1006.98 1005.43 1004.16 1003.46
1008.49 1009.22 1009.80 1010.30 1011.24 1012.20 1012.79 1013.08 1013.25 1013.56 1014.06 1014.74 1015.51 1016.39 1016.96 1017.69 1018.34 1018.38 1017.89 1017.71 1017.44 1017.19 1016.83 1016.79 1016.86 1016.51 1016.20 1016.04 1015.62 1014.18 1013.58 1013.10 1012.14 1011.66 1011.64 1011.00 1009.96 1008.95 1008.54 1007.90 1006.99 1006.02 1005.56
1008.88 1009.67 1010.28 1010.70 1011.73 1012.74 1013.38 1013.57 1013.41 1013.86 1014.68 1015.44 1016.53 1017.28 1017.85 1018.41 1018.78 1018.66 1018.05 1017.74 1017.43 1017.30 1016.92 1016.28 1015.79 1015.66 1015.44 1015.46 1015.38 1015.18 1014.96 1014.28 1013.49 1012.61 1012.69 1011.72 1010.98 1009.97 1009.35 1009.22 1008.75 1007.70 1007.10
Wind_Speed
2 2 4 4 3 2 4 4 6 5 6 6 6 8 11 9 8 5 4 6 4 4 4 7 9 10 10 10 10 9 10 10 10 11 13 13 14 15 15 16 17 17 16
2 2 2 3 3 4 5 5 4 4 3 6 6 7 8 9 6 6 5 4 8 4 4 5 7 9 9 9 10 10 10 10 11 10 11 12 12 14 15 16 16 17 17
2 3 2 2 4 3 2 2 1 1 4 5 7 8 7 7 6 4 5 4 8 11 8 8 8 9 7 5 4 6 8 9 10 10 11 12 12 13 13 15 17 17 17
3 3 2 1 5 2 3 2 3 5 7 8 8 7 8 5 4 4 4 5 4 2 11 8 9 10 10 10 9 8 9 9 9 9 11 11 11 12 13 13 15 16 17
4 4 3 1 2 2 2 4 6 6 5 5 5 5 6 6 4 3 2 2 2 3 4 8 6 8 9 8 8 10 10 10 10 9 9 11 12 11 11 12 12 14 16
5 4 2 2 4 4 3 4 6 4 4 6 5 6 6 4 5 5 4 4 3 5 4 5 5 4 7 4 6 8 10 10 9 10 10 11 11 10 12 11 11 12 14
6 4 5 3 4 6 3 2 4 3 9 4 8 6 7 2 6 4 4 5 3 4 5 5 4 4 1 6 7 8 9 10 10 10 11 11 12 13 10 11 11 11 12
7 6 5 5 5 5 3 4 4 5 8 1 4 4 2 3 4 5 7 3 1 3 5 5 4 4 6 6 4 5 5 10 13 12 11 9 10 11 11 11 10 9 11
9 9 8 8 7 7 6 7 8 8 7 2 4 4 2 4 8 1 2 3 3 5 6 5 5 5 6 7 5 5 6 8 13 14 13 11 10 11 12 12 11 10 8
9 10 11 11 10 9 9 9 8 7 4 7 3 3 5 5 6 7 0 4 5 6 8 7 7 5 6 7 8 7 5 12 15 15 16 14 13 12 12 12 13 13 11
8 10 12 12 11 9 10 10 10 9 4 4 9 7 4 7 6 7 12 6 4 5 5 5 6 6 6 6 7 6 12 13 16 16 17 17 16 15 14 14 14 14 15
8 11 12 12 11 10 9 10 10 8 5 1 6 9 8 9 10 7 10 12 10 7 2 5 6 5 7 7 10 8 13 16 16 15 17 18 19 19 20 19 19 19 18
8 9 11 11 9 9 10 11 10 10 5 2 8 11 7 8 9 8 7 10 9 9 5 4 5 5 6 8 10 13 19 18 13 13 16 18 20 21 22 23 22 22 22
9 9 9 11 11 11 9 8 8 9 7 6 10 12 10 9 7 6 5 5 7 9 7 6 5 5 6 9 12 16 13 14 13 14 17 19 20 22 23 23 24 24 24
10 10 10 11 11 11 11 9 8 10 8 9 11 10 9 10 6 5 3 4 9 11 9 10 10 10 9 10 11 13 14 15 18 21 20 19 19 20 21 23 23 22 22
11 11 12 12 12 12 10 10 10 8 8 7 7 7 6 8 6 3 3 8 6 8 10 10 10 12 11 12 12 13 14 18 17 17 17 14 16 20 22 23 23 24 24
13 14 13 13 12 12 11 10 7 7 9 10 8 8 8 7 5 4 7 5 6 6 10 11 11 11 12 13 14 13 15 14 14 15 17 18 18 19 19 20 22 23 24
13 14 13 13 13 12 12 13 9 9 10 10 6 6 7 5 7 3 5 3 6 7 8 14 11 11 10 12 12 13 12 13 14 13 21 24 23 20 19 19 19 20 21
13 14 13 13 12 11 14 13 9 5 11 9 7 6 7 6 4 3 4 5 6 7 9 10 12 10 9 9 12 11 11 13 11 21 18 21 23 23 19 18 17 16 17
12 13 13 12 11 10 14 13 9 5 6 6 6 6 5 5 2 2 3 5 5 8 8 9 9 9 9 10 11 12 13 12 11 10 11 18 22 20 16 17 17 18 15
11 12 12 12 11 10 11 12 6 5 7 5 7 6 5 12 17 11 6 7 7 8 8 8 8 8 9 12 12 12 13 13 13 5 7 11 10 9 10 13 17 18 15
11 10 12 13 11 10 11 7 6 6 8 9 8 8 9 11 11 12 10 9 6 6 7 8 8 9 11 12 12 13 13 13 9 5 9 12 7 10 9 10 24 22 14
8 8 8 10 10 8 13 12 10 11 11 9 9 8 6 7 4 5 4 4 6 5 4 6 8 9 11 13 13 15 14 12 11 11 8 8 7 9 10 12 27 14 1
6 7 9 9 9 8 13 12 7 11 10 10 9 7 8 6 7 3 3 3 3 3 5 6 7 8 9 10 11 12 11 15 12 4 11 4 9 8 11 12 29 32 18
9 9 9 9 11 10 11 12 11 12 11 10 9 8 8 8 4 5 3 4 3 4 5 8 10 10 11 7 8 11 14 13 11 6 11 7 9 9 7 13 14 29 27
10 8 9 12 13 11 9 9 11 10 11 9 9 9 13 8 4 6 4 4 4 5 6 7 5 3 6 7 8 13 12 11 10 6 12 9 11 8 4 10 15 14 13
Wind_Direction
52 25 47 19 21 56 61 29 36 31 4 12 4 357 356 343 333 310 312 121 344 325 261 261 264 257 254 248 248 248 241 245 246 246 249 249 251 250 249 245 242 236 232
58 29 49 46 67 30 22 20 24 4 347 350 3 1 344 356 1 337 334 134 120 48 350 307 285 273 258 260 260 270 259 257 248 241 250 253 251 251 249 248 244 239 232
138 317 46 358 40 20 309 52 264 319 358 354 2 7 354 360 360 348 309 345 128 104 74 58 52 46 41 22 339 304 286 275 267 256 248 247 245 244 242 243 248 244 239
221 240 255 345 35 28 14 25 9 350 9 0 347 359 342 324 346 1 24 346 351 9 124 74 49 40 27 24 18 2 359 354 324 286 273 268 260 249 247 243 245 246 237
220 268 269 59 321 326 351 320 63 44 13 335 311 330 345 308 302 16 345 344 22 336 350 124 127 82 49 32 32 32 24 16 7 344 316 285 266 260 245 241 243 244 244
215 229 224 333 281 268 262 8 65 41 274 244 290 330 306 285 291 313 327 311 31 327 334 347 325 63 110 75 50 26 12 0 358 348 341 343 309 265 256 246 241 240 244
206 217 267 239 245 257 289 52 139 250 274 5 300 312 347 15 308 325 319 322 352 318 351 347 319 331 322 158 101 11 355 350 341 339 339 345 353 358 324 268 244 240 241
226 239 260 267 264 268 190 172 197 261 279 122 324 330 40 278 210 283 279 247 335 313 300 285 321 324 308 312 38 283 327 342 326 316 315 326 335 339 342 346 341 267 244
240 241 249 256 262 253 167 179 191 222 269 14 318 341 317 327 331 46 290 265 244 279 307 294 272 295 315 311 300 326 47 337 319 304 296 299 314 323 322 321 320 326 301
235 234 238 243 238 253 150 196 195 218 244 340 334 295 301 319 322 315 137 190 242 262 287 280 301 282 291 294 325 305 13 333 313 298 293 288 290 299 303 305 305 301 297
233 234 234 238 237 234 179 204 207 214 196 77 327 313 310 294 277 292 306 313 254 304 236 266 310 299 301 294 304 335 350 317 307 300 294 289 287 284 286 291 290 289 285
207 216 233 233 236 238 170 208 222 222 218 184 267 289 298 311 310 282 285 296 327 309 299 290 299 309 317 312 320 349 327 313 303 295 290 288 283 280 277 278 277 277 273
225 224 222 236 232 222 210 216 211 225 213 91 272 287 283 286 297 292 286 293 305 300 277 299 293 297 319 311 321 347 314 292 280 278 278 280 283 281 279 279 276 271 268
237 236 226 236 228 234 210 199 219 219 202 188 230 266 280 285 314 285 261 286 285 294 316 330 328 319 319 333 327 329 307 315 297 296 290 284 280 279 279 277 275 268 265
248 237 239 236 232 227 211 201 219 219 192 189 220 248 260 280 281 254 251 212 280 305 319 331 324 349 330 326 327 308 308 309 314 288 280 275 275 278 280 279 274 270 264
225 243 228 227 229 222 215 191 225 234 196 208 235 252 265 288 268 272 209 238 268 298 308 321 329 330 343 323 309 313 312 305 302 285 280 286 285 279 277 275 273 264 258
221 227 231 230 226 219 202 186 210 230 204 220 229 253 267 264 264 247 230 271 278 324 303 313 320 336 321 317 320 318 314 305 307 309 312 313 301 299 288 278 275 269 262
222 227 228 228 227 219 191 181 177 239 241 248 254 237 256 243 246 221 259 272 328 321 313 307 316 317 314 323 314 309 302 311 317 349 349 330 316 311 303 291 281 271 262
220 221 221 228 224 217 188 192 156 220 251 244 254 249 241 219 196 321 293 340 327 326 316 316 306 316 324 316 323 311 315 312 327 7 327 313 318 310 303 294 288 275 259
221 220 222 222 218 187 201 197 195 261 234 232 244 208 195 182 181 220 301 332 347 324 312 290 315 317 325 348 323 329 326 330 329 343 309 315 316 307 325 311 297 289 273
214 221 218 216 204 194 195 197 209 219 198 203 185 172 113 68 60 50 349 23 347 324 323 323 322 329 342 337 336 333 328 324 330 325 318 320 325 327 318 309 296 287 286
208 207 214 212 193 196 163 152 193 167 184 171 125 108 112 123 84 67 64 49 28 327 321 331 334 342 348 333 335 337 329 330 323 337 331 319 324 324 319 331 318 295 274
197 189 206 204 175 177 130 145 182 160 157 131 131 142 129 87 89 93 123 188 189 203 255 302 326 341 331 338 332 331 334 333 335 322 338 312 332 332 351 335 1 12 309
161 157 171 165 149 125 133 156 188 134 127 142 122 108 98 103 54 13 3 344 336 335 345 330 333 343 342 341 341 321 338 347 341 347 360 312 338 338 2 359 12 32 39
131 149 148 142 124 124 133 136 156 149 129 113 103 106 114 102 70 334 360 4 358 8 188 215 248 263 270 279 324 347 5 355 342 345 360 333 344 335 21 13 13 27 39
129 122 120 131 115 126 145 163 154 131 131 119 113 110 57 99 77 359 17 9 7 17 0 351 19 74 34 28 38 32 13 4 350 341 351 347 347 347 358 23 21 22 26